Location: La Verne
(34.1008°N, 117.7678°W)
Time: 23:19:32
(UTC+00:00)

Daily predictions for brighter satellites

Satellite Brightness Start Highest point End
(mag) Time Altitude Azimuth Time Altitude Azimuth Time Altitude Azimuth
Cosmos 1707 4.2 12:00:46 10° SSE 12:04:23 38° E 12:08:02 10° NNE
Cosmos 2219 Rocket 3.1 12:07:44 32° NNW 12:07:44 32° NNW 12:11:29 10° N
Fregat R/B Cluster 11 4.2 12:08:21 51° NNE 12:08:21 51° NNE 12:12:25 10° NNE
Cosmos 1470 4.2 12:04:05 10° N 12:07:45 38° E 12:11:22 10° SSE
H-2A R/B 3.0 12:04:41 10° N 12:07:47 48° N 12:07:47 48° N
Cosmos 2237 Rocket 2.1 12:09:51 21° SSW 12:13:42 89° WNW 12:19:25 10° NNE
SJ-6F 4.3 12:09:45 10° NNE 12:13:55 86° E 12:16:13 26° S
Cosmos 1140 Rocket 4.1 12:09:56 10° S 12:15:00 56° ESE 12:20:04 10° NNE
Centaur D-1AR AC-39 3.7 12:15:01 13° S 12:16:18 15° SSE 12:18:53 10° SE
BREEZE-M DEB (TANK) 2.2 12:18:24 52° NW 12:19:09 73° NNE 12:21:37 10° ESE
Cosmos 2184 Rocket 3.9 12:14:28 10° S 12:20:39 86° W 12:26:56 10° N
IDEFIX/ARIANE 42P 3.4 12:16:17 10° N 12:19:57 32° NW 12:19:57 32° NW
Cosmos 614 Rocket 3.8 12:17:10 16° SSW 12:21:24 81° WNW 12:26:38 10° NNE
PAYLOAD A 3.8 12:18:25 10° N 12:23:15 66° WNW 12:28:14 10° SSW
Cosmos 1025 Rocket 4.2 12:25:22 27° NNW 12:25:22 27° NNW 12:27:39 10° N
Cosmos 1992 Rocket 4.1 12:22:56 36° WNW 12:24:30 47° WSW 12:29:27 10° S
COSMOS 2428 3.8 12:26:41 25° NW 12:26:41 25° NW 12:30:38 10° N
Okean O Rocket 4.4 12:24:09 10° NE 12:27:23 20° E 12:30:34 10° SE
Cosmos 1980 3.7 12:26:56 22° SW 12:30:32 58° WNW 12:36:07 10° NNE
NOSS 3-2 (C) 4.5 12:22:47 10° NNW 12:30:34 66° ENE 12:39:04 10° SE
PSLV R/B 3.8 12:37:46 31° S 12:38:18 36° SSE 12:40:47 10° E
Cosmos 921 Rocket 2.8 12:35:23 10° NNW 12:39:38 71° WSW 12:43:48 10° S
ERBS 4.5 12:40:41 14° NNW 12:40:41 14° NNW 12:41:50 10° N
USA 234 3.2 12:34:29 10° SE 12:41:01 74° SW 12:47:34 10° NW
NOSS 3-4 (A) 3.6 12:38:27 23° WSW 12:42:01 48° NW 12:48:02 10° NNE
NOSS 3-4 (C) 3.6 12:38:27 22° WSW 12:42:06 49° NW 12:48:09 10° NNE
Meteor 1-4 Rocket 2.3 12:40:47 10° S 12:44:19 86° W 12:47:49 10° N
Cosmos 1023 Rocket 4.4 12:44:49 10° SSW 12:49:57 62° WNW 12:55:04 10° N
CZ-4B R/B 3.1 12:47:35 10° N 12:51:23 44° WNW 12:55:00 10° SW
Cosmos 2074 Rocket 4.3 12:48:51 10° SSW 12:54:42 42° W 13:00:34 10° N
Cosmos 676 Rocket 3.9 12:50:37 10° SSW 12:55:54 74° WNW 13:01:11 10° NNE
Milstar 3 3.9 12:50:11 10° SW 12:56:28 38° SSE 13:03:06 10° E
Cosmos 1437 Rocket 3.6 12:54:11 10° S 12:57:52 51° E 13:01:33 10° NNE
GPS 2-05 Rocket1 4.0 12:58:48 18° SW 12:59:23 19° SSW 13:01:25 10° SSE
Cosmos 1892 Rocket 3.6 12:55:16 10° S 12:59:43 87° E 13:04:09 10° N
GP-B 3.2 12:57:07 10° S 13:01:32 81° E 13:05:58 10° N
BREEZE-M DEB (TANK) 3.3 12:50:32 10° SW 13:02:41 80° SE 13:05:54 10° NE
SeaSat 1 4.2 12:59:23 10° NE 13:03:54 36° ESE 13:08:24 10° S
PSLV R/B 3.7 13:01:50 10° N 13:05:27 52° WNW 13:09:01 10° SSW
SL-16 R/B 2.2 13:00:00 10° SSW 13:05:39 89° WNW 13:11:21 10° NNE
Cosmos 1295 Rocket 4.4 13:00:38 10° S 13:06:51 82° W 13:13:02 10° N
Cosmos 1953 2.3 13:04:37 10° NNW 13:08:34 56° W 13:12:28 10° S
ATLAS 3B R/B 3.0 13:01:55 10° NNW 13:08:39 72° ENE 13:15:34 10° SE
Cosmos 407 Rocket 4.4 13:04:36 10° WSW 13:08:56 27° WNW 13:13:16 10° N
Cosmos 389 Rocket 3.6 13:07:05 10° SW 13:09:47 22° WNW 13:12:30 10° NNW
Meteor 1-16 Rocket 4.2 13:05:19 10° N 13:10:39 80° E 13:16:02 10° S
Helios 1A Rocket 3.0 13:10:12 10° NNE 13:14:22 87° ESE 13:18:31 10° SSW
Cosmos 1758 4.4 13:12:25 10° NW 13:15:38 24° W 13:18:53 10° SW
FENGYUN 3A 4.0 13:13:31 10° NNE 13:18:58 75° ESE 13:24:22 10° S
Cosmos 1606 Rocket 3.6 13:14:55 10° NNW 13:19:07 53° W 13:23:19 10° S
CENTAUR R/B 3.3 13:13:49 10° NNW 13:22:10 85° WSW 13:30:54 10° SSE
Cosmos 2278 Rocket 2.6 13:17:17 10° NW 13:22:36 42° WSW 13:27:53 10° S
ATLAS 2AS CENTAUR R/B 4.1 13:16:52 10° W 13:23:06 25° NW 13:29:28 10° N
COBE Rocket 3.9 13:18:19 10° S 13:23:14 69° W 13:28:20 10° NNW
Meteor 2-5 Rocket 3.9 13:17:44 10° S 13:23:27 84° E 13:29:20 10° N
Okean 1-7 Rocket 3.9 13:20:24 10° SSW 13:24:37 45° W 13:28:55 10° N
IUS-9 SRM-1 3.9 13:22:21 10° SW 13:24:50 29° SSE 13:31:41 10° ESE
CZ-2C R/B 3.8 13:24:08 10° NNW 13:27:44 19° WNW 13:31:17 10° WSW
RESURS DK-1 2.8 13:24:02 10° SW 13:27:57 41° WNW 13:31:53 10° N
METEOR-M 4.1 13:27:30 10° N 13:32:50 74° WNW 13:38:08 10° SSW
Cosmos 1850 Rocket 4.0 13:28:35 10° SSW 13:33:46 90° SSE 13:38:58 10° NNE
Cosmos 1908 3.8 13:30:53 10° N 13:34:40 63° E 13:38:27 10° SSE
SJ-12 4.3 13:31:40 10° N 13:35:31 40° WNW 13:39:21 10° SW
ALOS 2.3 13:31:06 10° N 13:35:44 66° WNW 13:40:21 10° SSW
